This is the latest recevied weather packets stored in our database for station/object OM2RC-6. If no packets are shown the sender has not sent any weather packets the latest 1 day(s).
| Time | Temp. | Humidity | Pressure | Rain* | Wind** | Luminosity | Snow |
|---|---|---|---|---|---|---|---|
| 1778056300 | 20.56° C | 91% | 1010.4 hPa | - | - | - | - |
| 1778055095 | 20.56° C | 90% | 1010.4 hPa | - | - | - | - |
| 1778054493 | 20.56° C | 85% | 1010.2 hPa | - | - | - | - |
| 1778054192 | 20.56° C | 86% | 1010.2 hPa | - | - | - | - |
| 1778053588 | 19.44° C | 89% | 1010.4 hPa | - | - | - | - |
| 1778053288 | 19.44° C | 90% | 1010.4 hPa | - | - | - | - |
| 1778052986 | 20° C | 91% | 1010.4 hPa | - | - | - | - |
| 1778052685 | 20° C | 88% | 1010.3 hPa | - | - | - | - |
| 1778052384 | 20.56° C | 88% | 1010.3 hPa | - | - | - | - |
| 1778052082 | 20.56° C | 86% | 1010.4 hPa | - | - | - | - |
| 1778051779 | 20° C | 87% | 1010.4 hPa | - | - | - | - |
| 1778051176 | 21.11° C | 87% | 1010.7 hPa | - | - | - | - |
| 1778050874 | 19.44° C | 93% | 1010.6 hPa | - | - | - | - |
| 1778050270 | 18.89° C | 97% | 1010.7 hPa | - | - | - | - |
| 1778049666 | 18.33° C | 100% | 1010.6 hPa | - | - | - | - |
| 1778048761 | 17.22° C | 100% | 1010.5 hPa | - | - | - | - |
| 1778048459 | 17.78° C | 100% | 1010.6 hPa | - | - | - | - |
| 1778047856 | 16.67° C | 100% | 1010.6 hPa | - | - | - | - |
| 1778047554 | 16.67° C | 100% | 1010.6 hPa | - | - | - | - |
| 1778047253 | 16.67° C | 100% | 1010.6 hPa | - | - | - | - |
| 1778046952 | 16.67° C | 100% | 1010.6 hPa | - | - | - | - |
| 1778046648 | 17.22° C | 100% | 1010.6 hPa | - | - | - | - |
| 1778046347 | 17.22° C | 100% | 1010.6 hPa | - | - | - | - |
| 1778046047 | 16.67° C | 100% | 1010.6 hPa | - | - | - | - |
| 1778045443 | 17.78° C | 100% | 1010.4 hPa | - | - | - | - |
* Rain since midnight (hover to see other rain measurements)
** Current wind speed in m/s (hover to see current wind gust speed)